Regional Weather Roundup
Issued by NWS

Home | Current Version | Previous Version | Text Only | Print | Product List | Glossary On
Versions: 1 2 3 4 5 6 7 8 9 10 11 12 13 14 15 16 17 18 19 20 21 22 23 24 25 26 27 28 29 30 31 32 33 34 35 36 37 38 39 40 41 42 43 44 45 46 47 48 49 50
000
ASUS44 KLIX 102211
RWRLA
LOUISIANA WEATHER ROUNDUP
NATIONAL WEATHER SERVICE NEW ORLEANS LA
400 PM CST WED FEB 10 2016

NOTE: "FAIR" INDICATES FEW OR NO CLOUDS BELOW 12,000 FEET WITH NO
      SIGNIFICANT WEATHER AND/OR OBSTRUCTIONS TO VISIBILITY.
      SKY/WX - SKY CONDITION AND SIGNIFICANT WEATHER.
      TMP - AIR TEMPERATURE.    DP   - DEWPOINT TEMPERATURE.
      RH  - RELATIVE HUMIDITY.  PRES - PRESSURE.
      HX  - HEAT INDEX.         WCI  - WIND CHILL INDEX.

*  THESE STATIONS ARE NOT NWS OR FAA STATIONS AND ARE NOT UNDER
   NWS QUALITY CONTROL.

LAZ040-048-061>063-065-066-069-102300-
SOUTHEAST LOUISIANA

CITY           SKY/WX    TMP DP  RH WIND       PRES   REMARKS
N.O. AUDUBON     N/A     58  32  38 MISG        N/A
N.O. INTL ARPT MOSUNNY   59  23  25 SW8       30.28F
N.O. LAKEFRONT SUNNY     53  28  38 W5        30.29F
N.O. DOWNTOWN* FAIR      61  23  23 MISG      30.30S
RESERVE*       FAIR      60  23  23 SW3       30.27F
SLIDELL        SUNNY     55  27  34 VRB7      30.27F
BATON ROUGE    SUNNY     57  24  28 SW6       30.27F
BOOTHVILLE     SUNNY     54  29  38 SW10      30.31F
BELLE CHASSE   MOSUNNY   57  24  28 VRB7      30.29F
BOGALUSA*        N/A     60  22  23 W6        30.26S
GALLIANO*      CLEAR     58  30  34 SW10      30.30F
NEW ROADS*     FAIR      57  28  32 SE5       30.27S
GONZALES*      FAIR      59  28  30 CALM      30.27S
HAMMOND*       SUNNY     63  19  19 W6        30.25F
HOUMA*         SUNNY     57  27  30 SW5       30.29F
PORT FOURCHON* CLEAR     54  30  40 W9        30.32F

$$

LAZ041-044-053-054-102300-
SOUTHWEST LOUISIANA

CITY           SKY/WX    TMP DP  RH WIND       PRES   REMARKS
LAKE CHARLES   SUNNY     59  31  34 SW9       30.29F
LAFAYETTE      SUNNY     59  29  31 SW9       30.28F
PATTERSON      SUNNY     59  27  29 NE3       30.30F
SALT POINT       N/A     52  36  54 SW7       30.30F
NEW IBERIA     SUNNY     59  32  36 S15       30.29F
CHENAULT AIRPK NOT AVBL

$$

LAZ027-028-102300-
CENTRAL LOUISIANA

CITY           SKY/WX    TMP DP  RH WIND       PRES   REMARKS
FORT POLK      SUNNY     62  30  29 S9        30.24F
ALEXANDRIA INT SUNNY     62  30  29 SW12      30.21F
ALEXANDRIA     SUNNY     62  26  25 S9        30.23F

$$

LAZ001-002-102300-
NORTHWEST LOUISIANA

CITY           SKY/WX    TMP DP  RH WIND       PRES   REMARKS
SHREVEPORT     SUNNY     65  28  24 SW12      30.16F
BARKSDALE AFB  SUNNY     63  29  27 SW9       30.16F
DTN SHREVEPORT SUNNY     64  27  24 W10       30.16F

$$

LAZ014-016-102300-
NORTHEAST LOUISIANA

CITY           SKY/WX    TMP DP  RH WIND       PRES   REMARKS
MONROE         SUNNY     59  27  29 W14G22    30.19F
TALLULAH       SUNNY     58  24  27 VRB6      30.21F

$$




USA.gov is the U.S. government's official web portal to all federal, state and local government web resources and services.